sat.trackr.live / text

‹ back to catalog

ONEWEB-0696

NORAD 56723 · 2023-068P

PAYLOAD ACTIVE UNKNOWN

§ Identity

Operator
Country
UK
Launch date
2023-05-20
Launch site
AFWTR
Launch vehicle
Mass (kg)
RCS (m²)

Purposes: comms

External: N2YO · Heavens-Above · Gunter

§ Orbital elements

Epoch: 2026-09-19T22:33:44.541504Z

Period
109.46 min
Inclination
87.8986°
Eccentricity
0.0002226
Mean motion
13.15549112 rev/d
Perigee alt
1,200.1 km
Apogee alt
1,203.5 km
Semi-major
7,579.9 km
B*
2.9852e-4
RAAN
240.3266°
Arg perigee
71.8462°
Mean anomaly
288.2911°
Rev number
16,182

§ Raw data

ONEWEB-06961 56723U 23068P   26262.94009886  .00000125  00000+0  29852-3 0  99902 56723  87.8986 240.3266 0002226  71.8462 288.2911 13.15549112161825

JSON: /api/v1/satellites/56723 · /tle

For live sub-satellite position, see the globe view (requires WebGL).

§ Visibility from observer

Set your observer location to see the next 7 days of passes ≥ 10°. The values pass through the URL so the page stays shareable.

No JS? Fill the form by hand. The geolocation button needs JavaScript.